星链-35766(STARLINK-35766)

导读

STARLINK-35766是美国太空探索技术公司(SpaceX)星链星座的成员,于2025年12月17日在美国发射升空。星链项目旨在打造全球卫星互联网星座,该卫星入轨后,将与其他星链卫星协同工作,为全球用户提供低延迟、高速率的宽带互联网服务,进一步扩充星链星座的在轨规模。

基本信息
目录编号:
67181
目录名称:
STARLINK-35766
国际标识:
2025-303U
轨道中心:
EARTH
卫星名称:
星链-35766
卫星全名:
星链-35766(STARLINK-35766)
卫星状态:
在轨 (已飞行261 天)
发射日期:
2025-12-17 UTC
国别 :
美国 (US)
星等 :
--
轨道信息
数据来源 国际轨道数据
星历时间: 2026-09-04T02:37:09+0800
14小时前
查看轨道信息
半长轴: 6861.137km
偏心率: 0.0001897
轨道倾角: 43.006°
近地点辐角 275.073°
升交点赤经 24.758°
平近点角 84.991°
近地点: 481.698km
远地点: 484.302km
周期: 94.266分钟
每日圈数: 15.275964
详细信息
固有亮度:
5
最大亮度:
2.5
卫星平台:
Starlink V1.0
覆盖范围:
全球
运营商:
太空探索技术公司
运营商所在国:
美国
制造商(研发单位):
太空探索技术公司
制造商所在国:
美国
使用方式:
暂无
卫星简介
Starlink 计划是 SpaceX 推出的全球卫星互联网项目,通过发射低轨道卫星,为全球尤其是偏远地区提供高速、低延迟的互联网服务。自 2019 年起,Starlink 已部署数千颗卫星,旨在缩小全球数字鸿沟,推动互联网普及。该项目还为军事、航空等行业提供通信支持,带来广泛经济效益。
2D轨道图
3D轨道图
轨道高度分析图
轨道倾角分析图
轨道综合分析图
查看轨道综合分析图
交会数据列表
事件ID 空间交会对象 最接近时刻(TCA) 交会距离 交会风险概率(CRP) 交会风险指数(CRI) 操作
CDM_260828-125806-228906-718121
2026-08-28T
12:58:43+0000
0.314 km
远距离
3.534707E-4 高风险 0.86
CDM_260904-012405-904306-718121
2026-09-04T
01:24:37+0000
0.364 km
远距离
2.467437E-4 高风险 0.83
CDM_260904-085705-650406-718122
2026-09-04T
08:57:26+0000
0.879 km
远距离
2.690879E-5 中风险 0.64
CDM_260903-193705-650406-718122
2026-09-03T
19:37:08+0000
0.958 km
远距离
2.012563E-5 中风险 0.61
CDM_260905-010605-764006-718121
2026-09-05T
01:06:23+0000
1.285 km
极远距离
8.541476E-6 低风险 0.54
CDM_260903-211105-650406-718122
2026-09-03T
21:11:17+0000
1.268 km
极远距离
7.630539E-6 低风险 0.53
CDM_260904-233205-764006-718121
2026-09-04T
23:32:14+0000
1.380 km
极远距离
6.699011E-6 低风险 0.52
CDM_260905-125205-764006-718121
2026-09-05T
12:52:31+0000
1.552 km
极远距离
4.561514E-6 低风险 0.48
CDM_260904-113605-904306-718121
2026-09-04T
11:36:37+0000
1.487 km
极远距离
3.846302E-6 低风险 0.47
CDM_260904-072305-650406-718122
2026-09-04T
07:23:17+0000
1.666 km
极远距离
3.161984E-6 低风险 0.45